Regional Weather Roundup
Issued by NWS Northern Indiana

Home | Current Version | Previous Version | Graphics & Text | Print | Product List | Glossary On
Versions: 1 2 3 4 5 6 7 8 9 10 11 12 13 14 15 16 17 18 19 20 21 22 23 24 25 26 27 28 29 30 31 32 33 34 35 36 37 38 39 40 41 42 43 44 45 46 47 48 49 50
000
ASUS43 KIWX 191300
RWRIWX

KIWX WEATHER ROUNDUP
NATIONAL WEATHER SERVICE NORTHERN INDIANA
800 AM EST THU JAN 19 2017

NOTE: "FAIR" INDICATES FEW OR NO CLOUDS BELOW 12,000 FEET WITH NO
SIGNIFICANT WEATHER AND/OR OBSTRUCTIONS TO VISIBILITY.

* THESE STATIONS ARE NOT UNDER NWS QUALITY CONTROL. THEY ALSO MAY NOT
  REPORT WEATHER SUCH AS PRECIPITATION OR FOG.

INZ001>027-191400-
NORTHERN INDIANA

CITY           SKY/WX    TMP DP  RH WIND       PRES   REMARKS
GARY*          CLOUDY    36  34  93 S5        30.03F FOG
SOUTH BEND     FOG       33  33 100 S6        30.06F VSB 1   WCI  28
ELKHART*       CLOUDY    34  32  93 S12       30.06R FOG     WCI  25
GOSHEN         CLOUDY    34  31  88 S6        30.07R FOG     WCI  29
FORT WAYNE     CLOUDY    35  32  88 CALM      30.07F FOG

$$
INZ028>050-191400-
CENTRAL INDIANA

CITY           SKY/WX    TMP DP  RH WIND       PRES   REMARKS
LAFAYETTE      CLOUDY    33  33 100 E5        30.04F FOG     WCI  29
KOKOMO*        CLOUDY    35  33  92 SE9       30.06F FOG     WCI  28
MUNCIE*        CLOUDY    37  34  89 S6        30.07R
INDIANAPOLIS   MOCLDY    35  33  92 E8        30.04F FOG     WCI  29

$$
MIZ043>046-050>051-056>058-064>065-071>073-077>080-191400-
SOUTHWEST LOWER MICHIGAN

CITY           SKY/WX    TMP DP  RH WIND       PRES   REMARKS
BATTLE CREEK   CLOUDY    33  31  92 SW5       30.05R WCI  29
BENTON HARBOR  CLOUDY    36  33  89 S8        30.04S FOG
COLDWATER*     CLOUDY    33  33 100 SW5       30.06S WCI  28
HILLSDALE*     CLOUDY    32  30  93 CALM      30.03S FOG
HOLLAND        CLOUDY    37  34  89 S8        30.03S
GRAND RAPIDS   CLOUDY    36  32  85 SW7       30.03S FOG
KALAMAZOO      CLOUDY    35  31  85 S7        30.05F FOG     WCI  29
STURGIS*       CLOUDY    33  32  98 SW8       30.07R FOG     WCI  25
THREE RIVERS*  CLOUDY    33  32  95 SW9       30.08R FOG     WCI  26

$$
OHZ001>008-015>018-024>025-191400-
NORTHWEST OHIO

CITY           SKY/WX    TMP DP  RH WIND       PRES   REMARKS
DEFIANCE       CLOUDY    33  31  92 SW3       30.08S
FINDLAY        CLOUDY    36  32  85 W5        30.07F
TOLEDO EXPRESS CLOUDY    34  33  96 SW8       30.07F WCI  27
TOLEDO METCALF CLOUDY    35  34  96 SW5       30.08F WCI  31
LIMA           CLOUDY    35  35 100 SW6       30.06F WCI  30

$$
AND FOR LAKE MICHIGAN COASTAL AND OPEN LAKE BUOY OBSERVATIONS

STATION/POSITION TEMP    WIND        PRES    VSBY  WAVE
                 AIR SEA DIR/SP/G                  HT/PER
                 (F)     (DEG/KT/KT) (MB)    (MI)  (FT/S)
CALUMET HARBOR    35     160/  8/ 11 1016.3R
BURNS HARBOR      36     180/ 10/ 17 1017.6

$$
&&




USA.gov is the U.S. government's official web portal to all federal, state and local government web resources and services.